Bilaspur Ex Pas 18235 Schedule, Route, Map - Bhopal to Bilaspur train
Must See India - Best Travel Guide to India
Home   |   Login   |   Register   |   Contact Us
 

Bilaspur Ex Pas (18235)

Print
     

Service Days:

All Days

Classes:

First Class (FC), Sleeper (SL)

Duration:

19h 45m

Station Arrival Departure Stop Time Distance Day
1 Bhopal (BPL) starts 08:00 am Starts 0 km 1
2 Dewanganj (DWG) 08:19 am 08:21 am 2 min 28 km 1
3 Salamatpur (SMT) 08:31 am 08:33 am 2 min 37 km 1
4 Sanchi (SCI) 08:42 am 08:44 am 2 min 45 km 1
5 Vidisha (BHS) 08:56 am 08:58 am 2 min 54 km 1
6 Gulabhganj (GLG) 09:08 am 09:10 am 2 min 75 km 1
7 Ganj Basoda (BAQ) 09:23 am 09:25 am 2 min 93 km 1
8 Kalhar (KAH) 09:48 am 09:50 am 2 min 113 km 1
9 Mandi Bamora (MABA) 09:58 am 10:00 am 2 min 122 km 1
10 Bina Jn (BINA) 10:50 am 11:00 am 10 min 139 km 1
11 Baghora (BJQ) 11:12 am 11:14 am 2 min 149 km 1
12 Khurai (KYE) 11:26 am 11:28 am 2 min 161 km 1
13 Sumreri (SMRR) 11:37 am 11:39 am 2 min 169 km 1
14 Jeruwa Khera (JRK) 11:53 am 11:55 am 2 min 179 km 1
15 Isarwara (ISH) 12:06 pm 12:08 pm 2 min 187 km 1
16 Nariaoli (NOI) 12:20 pm 12:22 pm 2 min 195 km 1
17 Saugor (SGO) 01:00 pm 01:10 pm 10 min 213 km 1
18 Makronia (MKRN) 01:18 pm 01:20 pm 2 min 220 km 1
19 Lidhora Khurd (LDA) 01:26 pm 01:28 pm 2 min 228 km 1
20 Girwar (GW) 01:40 pm 01:42 pm 2 min 238 km 1
21 Ganeshganj (GAJ) 01:55 pm 02:00 pm 5 min 251 km 1
22 Patharia (PHA) 02:20 pm 02:25 pm 5 min 264 km 1
23 Aslana (ANA) 02:48 pm 02:50 pm 2 min 278 km 1
24 Damoh (DMO) 03:25 pm 03:35 pm 10 min 291 km 1
25 Karhiya Bhadeli (KYX) 03:43 pm 03:45 pm 2 min 299 km 1
26 Bandakpur (BNU) 03:58 pm 04:00 pm 2 min 306 km 1
27 Ghatera (GEA) 04:13 pm 04:15 pm 2 min 317 km 1
28 Sagoni (SAO) 04:33 pm 04:35 pm 2 min 333 km 1
29 Salaia (SYA) 05:09 pm 05:11 pm 2 min 351 km 1
30 Bakhleta (BQQ) 05:23 pm 05:25 pm 2 min 363 km 1
31 Rithi (REI) 05:38 pm 05:40 pm 2 min 370 km 1
32 Hardua (HDU) 06:03 pm 06:05 pm 2 min 385 km 1
33 Katni Murwara (KMZ) 06:20 pm 06:40 pm 20 min 400 km 1
34 Jhalwara (JLW) 07:09 pm 07:11 pm 2 min 411 km 1
35 Rupaund (RPD) 07:21 pm 07:23 pm 2 min 423 km 1
36 Vilayatkalan Rd (VYK) 07:31 pm 07:33 pm 2 min 430 km 1
37 Chandia Road (CHD) 07:41 pm 07:43 pm 2 min 440 km 1
38 Lorha (LOA) 07:52 pm 07:54 pm 2 min 449 km 1
39 Umaria (UMR) 08:05 pm 08:10 pm 5 min 459 km 1
40 Karkeli (KKI) 08:18 pm 08:20 pm 2 min 471 km 1
41 Nowrozabad (NRZB) 08:30 pm 08:32 pm 2 min 481 km 1
42 Birsinghpur (BRS) 08:39 pm 08:41 pm 2 min 488 km 1
43 Ghunghuti (GGT) 08:55 pm 08:57 pm 2 min 505 km 1
44 Badhwa Bara (BDWA) 09:08 pm 09:10 pm 2 min 517 km 1
45 Shahdol (SDL) 09:40 pm 09:50 pm 10 min 526 km 1
46 Singhpur (SNGP) 09:56 pm 09:58 pm 2 min 532 km 1
47 Burhar (BUH) 10:10 pm 10:12 pm 2 min 545 km 1
48 Amlai (AAL) 10:20 pm 10:22 pm 2 min 554 km 1
49 Anuppur Jn (APR) 10:40 pm 11:05 pm 25 min 567 km 1
50 Chhulha (CLF) 11:09 pm 11:11 pm 2 min 572 km 1
51 Jaithari (JTI) 11:18 pm 11:20 pm 2 min 580 km 1
52 Nigaura (NIQ) 11:28 pm 11:30 pm 2 min 590 km 1
53 Venkatnagra (VKR) 11:38 pm 11:40 pm 2 min 598 km 1
54 Harri (HRB) 11:53 pm 11:55 pm 2 min 609 km 1
55 Pendra Road (PND) 12:15 am 12:25 am 10 min 617 km 2
56 Sarbahara (SBRA) 12:29 am 12:31 am 2 min 622 km 2
57 Khodri (KOI) 12:38 am 12:40 am 2 min 628 km 2
58 Bhanwar Tonk (BHTK) 12:57 am 12:59 am 2 min 639 km 2
59 Khongsara (KGS) 01:14 am 01:16 am 2 min 652 km 2
60 Tenganmada (TGQ) 01:22 am 01:24 am 2 min 660 km 2
61 Belgahna (BIG) 01:30 am 01:32 am 2 min 670 km 2
62 Salkaroad (SLKR) 01:39 am 01:41 am 2 min 678 km 2
63 Kargi Road (KGB) 01:48 am 01:50 am 2 min 686 km 2
64 Kalmitar (KLTR) 02:18 am 02:20 am 2 min 694 km 2
65 Ghutku (GTK) 02:43 am 02:45 am 2 min 701 km 2
66 Usalapur (USL) 03:05 am 03:07 am 2 min 709 km 2
67 Bilaspur (BSP) 03:45 am ends Ends 717 km 2
Slip Route
68 Anuppur Jn (APR) 10:40 pm 11:05 pm 25 min 567 km 1
69 Mauhari (MZH) 04:10 am 04:12 am 2 min 574 km 2
70 Dhurwasin (DRSN) 04:19 am 04:21 am 2 min 582 km 2
71 Harrad (HRV) 04:28 am 04:30 am 2 min 589 km 2
72 Kotma (KTMA) 04:39 am 04:41 am 2 min 598 km 2
73 Baihatola (BATL) 04:54 am 04:56 am 2 min 607 km 2
74 Bijuri (BJRI) 05:15 am 05:40 am 25 min 614 km 2
75 Boridand (BRND) 05:52 am 05:54 am 2 min 623 km 2
76 Manendragarh (MDGR) 06:15 am 06:25 am 10 min 631 km 2
77 Paradol (PRDL) 06:48 am 06:50 am 2 min 642 km 2
78 Chirmiri (CHRM) 08:05 am ends Ends 653 km 2

 

 Click to view map

You can drag the map with your mouse, and double-click to zoom.

People who viewed this page also viewed

 
Chikmagalur packages from Hyderabad
 
Chikmagalur resorts bookings
 
Dadra honeymoon packages from Kolkata
 
Dandeli packages from Chennai
 
Kargil packages from Pune
 
Katra honeymoon packages from Mumbai
 
Pangong packages from Kolkata
 
Pondicherry tour packages from Mumbai
 
Srinagar honeymoon packages from Chennai
 
honeymoon destinations in delhi
 
honeymoon packages to jammu and kashmir from chennai
 
manali shimla tour package
 

Destinations

 
 

More

 
debug_temp: train_route : train:1542:Bilaspur Ex Pas:Train